Printer-friendly version

IAU Minor Planet Center

Minor Planet Center

MPEC 2006-V62 : 2006 TT7

The following Minor Planet Electronic Circular may be linked-to from your own Web pages, but must not otherwise be redistributed electronically.


Read MPEC 2006-V61 Read MPEC 2006-V63


M.P.E.C. 2006-V62                                Issued 2006 Nov. 15, 14:51 UT

     The Minor Planet Electronic Circulars contain information on unusual
         minor planets and routine data on comets.  They are published
   on behalf of Commission 20 of the International Astronomical Union by the
          Minor Planet Center, Smithsonian Astrophysical Observatory,
                          Cambridge, MA 02138, U.S.A.

             Prepared using the Tamkin Foundation Computer Network

                              MPC@CFA.HARVARD.EDU
          URL http://cfa-www.harvard.edu/iau/mpc.html  ISSN 1523-6714

                                   2006 TT7

                           Revision to MPEC 2006-T69

Additional Observations:
     K06T07T  C2006 10 28.33972 04 27 42.40 +01 37 29.1          19.3 V EV062703
     K06T07T  C2006 10 28.34615 04 27 42.15 +01 37 40.4          19.3 V EV062703
     K06T07T  C2006 10 28.35262 04 27 41.83 +01 37 51.3          19.0 V EV062703
     K06T07T  C2006 10 28.35903 04 27 41.61 +01 38 02.9          19.2 V EV062703
     K06T07T  C2006 11 15.27654 04 10 26.43 +10 30 30.9          19.3 V EV062703
     K06T07T  C2006 11 15.28453 04 10 25.82 +10 30 43.8          19.1 V EV062703
     K06T07T  C2006 11 15.29256 04 10 25.32 +10 30 57.4          19.2 V EV062703
     K06T07T  C2006 11 15.30057 04 10 24.60 +10 31 12.8          19.3 V EV062703
     K06T07T  C2006 11 15.34838 04 10 20.98 +10 32 33.5          18.8 V EV062703
     K06T07T  C2006 11 15.35781 04 10 20.22 +10 32 48.6                 EV062703
     K06T07T  C2006 11 15.36722 04 10 19.46 +10 33 05.8          18.9 V EV062703
     K06T07T  C2006 11 15.37667 04 10 18.86 +10 33 21.4                 EV062703

Observer details:
703 Catalina Sky Survey.  Observers E. J. Christensen, R. E. Hill.  Measurers
    E. C. Beshore, E. J. Christensen, G. J. Garradd, A. R. Gibbs, A. D. Grauer,
    R. E. Hill, R. A. Kowalski, S. M. Larson, R. H. McNaught.  0.68-m Schmidt
    + CCD.

Orbital elements:
2006 TT7                                                 Earth MOID = 0.3308 AU
Epoch 2006 Sept. 22.0 TT = JDT 2454000.5                MPC
M   1.46415              (2000.0)            P               Q
n   0.20379995     Peri.  296.04278     +0.97284050     -0.09669888
a   2.8597847      Node    70.10867     +0.18535085     +0.86966841
e   0.5619011      Incl.   12.92375     -0.13865937     +0.48407250
P   4.84           H   19.6           G   0.15           U   5
Residuals in seconds of arc
061011 644  0.1-  0.4+    061013 734  0.2+  0.2+    061115 703  0.7-  0.3-
061011 644  0.4-  0.1+    061013 854  0.9-  0.2-    061115 703  1.0+  0.5-
061011 644  0.1-  0.6+    061013 854  0.0   0.2-    061115 703  0.5-  1.2+
061013 649  0.6-  0.6-    061013 854  0.4+  0.3+    061115 703  0.4+  0.1+
061013 734  0.1-  0.4-    061028 703  0.4-  0.3+    061115 703  0.1-  0.9-
061013 649  0.3+  0.4-    061028 703  0.1+  0.2+    061115 703  0.6-  0.3+
061013 649  1.4+  0.3-    061028 703  0.4-  0.3-    061115 703  1.2+  0.2-
061013 734  0.1+  0.1+    061028 703  0.6+  0.1-
061013 734  0.0   0.1+    061115 703  0.7-  0.5+

Ephemeris:
2006 TT7                 a,e,i = 2.86, 0.56, 13                  q = 1.2529
Date    TT    R. A. (2000) Decl.     Delta      r     Elong.  Phase     V
2006 11 11    04 15.33   +08 26.4    0.437    1.410   160.4    13.6    19.3
2006 11 21    04 03.77   +13 08.4    0.478    1.462   171.9     5.4    19.3
2006 12 01    03 53.32   +17 11.7    0.538    1.520   170.8     6.0    19.6
2006 12 11    03 46.18   +20 28.3    0.619    1.581   160.2    12.2    20.3
2006 12 21    03 43.25   +23 02.2    0.718    1.645   149.8    17.5    20.9
2006 12 31    03 44.66   +25 02.7    0.835    1.711   140.2    21.6    21.4
2007 01 10    03 49.90   +26 38.4    0.967    1.778   131.5    24.5    21.9

Timothy B. Spahr             (C) Copyright 2006 MPC           M.P.E.C. 2006-V62

Read MPEC 2006-V61 Read MPEC 2006-V63


Our Web policy. Index to the CBAT/MPC/ICQ pages.


Valid HTML 4.01!